Погода в Либлице

Чехия     50°18′46″N   14°35′26″E
темп.,
°C
ветер,
м/с
пор.,
м/с
влажн.,
%
обл.,
%
осадки,
мм/ч
давл.,
гПа
погр.,
м
14 апреля, ср
ср1423:00+3зсз3769100 0.0 1028199
02:00+2зсз3772100 0.0 1027178
05:00+1сз3777100 0.0 1027203
08:00+2сз4974100 0.0 1028650
11:00+5ссз6749100 0.0 10281375
14:00+7ссз6740100 0.0 10262301
17:00+7ссз6740100 0.0 10252045
20:00+4ссз3555100 0.0 102688
15 апреля, чт
чт1523:00+2сз3461100 0.0 102661
02:00+1сз2371100 0.0 102649
05:000сз3476100 0.0 102683
08:00+2сз4871100 0.0 1026584
11:00+4ссз5761100 0.0 10261281
14:00+4ссз6767100 0.2 10261203
17:00+3ссз5776100 0.2 1025916
20:00+1зсз4994100 0.6 1025594
16 апреля, пт
пт1623:00+1зсз5994100 0.6 1024518
02:00+1зсз4799100 1.1 1024251
05:00+1зсз3699100 0.3 1024326
08:00+2зсз3598100 0.4 1024393
11:00+2сз2497100 0.1 1025426
14:00+3сз2499100 0.2 1025402
17:00+3сз2598100 0.2 1025370
20:00+3сз2598100 0.2 1025336
17 апреля, сб
сб1723:00+3зсз2399100 0.0 1025168
02:00+3сз239998 0.0 1024168
05:00+3ссз249791 0.0 1024196
08:00+3ссз368833 0.0 1024343
11:00+7с4474100 0.0 1023891
14:00+8с4474100 0.0 1022957
17:00+8ссв557897 0.0 1022762
20:00+5с4788100 0.1 1022364
18 апреля, вс
вс1823:00+5с3590100 0.0 1023276
02:00+5ссз2592100 0.0 1022282
05:00+5ссз2694100 0.0 1021291
08:00+6ссз2593100 0.3 1021247
11:00+7с3485100 0.1 1021526
14:00+9ссз447685 0.3 1021834
17:00+10ссз4466100 0.1 10201109
20:00+7ссз3683100 0.2 1020134